Theta_e
308 308 309 310 310 310 310 311 310 310 310 310 309 310 310 310 310 310 309 308 307 307 309 308 306 305 305 305 301 303 303 304 303 304 303 303 303 303 303 301 303 304 303 305 305 306 306 304 303 305 305 306 306 306
309 309 309 310 310 310 310 310 310 310 310 310 310 309 309 309 309 309 309 308 308 307 308 308 307 305 304 303 304 304 302 305 305 301 300 301 304 301 302 304 300 303 303 304 305 305 304 305 306 307 306 305 306 305
309 310 310 310 310 310 310 310 309 309 310 309 309 309 308 308 308 307 308 306 307 306 306 305 306 306 305 305 303 303 303 304 306 306 304 302 305 301 305 302 302 301 302 302 303 303 304 305 306 305 306 305 305 305
310 310 311 310 310 310 310 310 310 309 309 309 308 307 307 306 307 307 306 306 305 305 301 305 304 303 303 304 304 303 303 303 304 305 305 302 304 303 302 303 302 303 302 301 300 303 304 307 305 304 304 304 304 304
311 311 310 310 310 310 309 308 307 307 307 307 307 306 305 305 305 305 306 307 305 305 300 305 306 305 304 303 302 302 302 301 302 302 299 300 301 302 301 299 300 303 302 302 303 303 302 303 303 303 302 303 302 301
311 311 311 310 309 308 307 306 306 305 305 304 304 304 304 303 302 303 306 303 302 304 304 301 304 303 302 302 301 300 300 300 301 302 300 301 302 302 299 300 302 303 304 304 302 303 302 301 301 301 300 299 300 300
306 306 306 306 306 305 304 303 303 301 301 301 301 302 301 301 301 303 305 304 301 302 303 303 303 300 299 298 298 298 298 299 300 301 300 300 301 303 299 301 303 303 303 303 303 301 299 300 299 300 299 299 300 301
302 302 301 300 300 299 299 299 299 299 299 299 298 298 298 299 299 300 300 301 302 303 303 301 301 299 298 297 297 297 298 298 298 299 300 299 300 300 300 301 302 303 301 300 299 299 298 299 300 301 299 299 301 301
298 297 297 296 296 296 296 297 298 298 297 297 296 296 296 296 298 299 299 300 301 302 301 299 295 297 298 298 298 297 297 297 297 298 298 299 299 300 300 301 302 301 299 299 300 300 300 300 299 300 301 302 301 302
295 296 296 295 296 297 296 296 296 295 296 295 295 295 298 298 298 298 300 300 299 300 299 297 297 296 298 296 296 296 296 297 297 297 298 298 299 300 300 301 301 299 298 297 297 297 298 300 300 300 300 301 301 302
291 291 292 293 294 296 296 295 294 295 294 294 296 297 297 298 299 298 298 298 298 297 297 297 297 298 298 300 299 299 295 297 296 296 298 299 298 297 301 300 299 298 298 297 296 295 296 297 298 299 300 300 301 301
292 292 291 291 291 291 292 293 293 293 296 297 297 297 297 297 297 297 298 298 297 297 295 295 295 297 298 299 299 298 296 296 297 295 295 295 296 301 300 299 299 298 297 297 296 295 295 297 297 298 299 300 300 300
293 293 292 292 291 291 291 291 292 293 294 296 296 297 296 295 296 297 291 298 296 295 296 295 295 297 297 297 297 297 298 297 295 294 294 294 296 299 300 299 299 297 296 296 296 297 296 295 297 297 298 299 299 299
293 294 294 293 292 292 291 290 290 293 294 295 295 293 293 287 293 290 289 288 296 297 297 297 296 296 295 294 295 298 295 294 294 295 292 291 298 299 298 299 296 296 296 296 296 296 296 295 295 296 296 297 298 298
293 292 293 294 294 293 291 291 291 293 294 294 293 291 286 293 294 295 295 297 298 298 297 297 296 296 292 292 295 296 297 298 297 290 290 297 297 296 295 295 295 296 295 294 293 293 294 294 294 295 295 295 296 297
291 291 292 293 294 295 292 291 292 293 294 294 294 293 293 293 294 295 295 296 298 297 297 298 295 296 296 295 296 296 295 293 292 288 297 296 295 295 295 296 295 294 293 293 292 294 294 294 295 295 295 295 296 297
290 291 291 291 292 294 294 292 292 293 293 294 293 293 293 293 294 295 295 296 296 297 293 295 296 295 290 293 296 294 289 289 296 296 295 295 295 295 295 293 292 292 292 293 294 294 294 294 295 295 295 296 297 297
290 290 291 291 291 292 294 294 293 293 292 292 292 293 293 293 293 294 294 295 297 296 296 291 294 286 288 287 292 293 294 294 294 294 294 294 295 293 292 292 292 292 293 293 293 293 294 294 294 294 295 295 296 296
290 290 290 290 291 291 292 293 293 292 291 291 291 292 293 293 293 294 294 294 295 296 295 294 288 285 292 294 294 294 294 293 293 294 294 293 292 292 292 292 292 292 292 292 293 293 293 294 294 294 295 295 296 296
290 290 290 290 290 291 293 292 292 292 290 291 291 291 291 291 292 292 292 293 293 294 293 291 293 293 293 293 293 293 293 293 292 292 292 292 291 292 292 292 292 292 292 293 293 293 293 294 294 294 295 295 296 298
291 291 291 291 291 291 291 291 292 292 292 292 292 292 291 291 290 291 291 291 291 293 291 292 293 293 293 293 293 292 292 292 292 292 291 291 292 292 292 292 292 292 292 293 293 293 293 293 294 294 296 297 297 297
290 290 290 290 290 291 291 291 292 292 291 292 292 291 290 290 290 290 290 290 290 290 291 291 291 291 291 292 292 292 292 292 291 291 291 291 291 292 292 292 292 292 293 293 293 293 293 294 294 295 295 296 296 296
290 290 290 290 290 290 290 290 291 291 288 291 291 288 288 289 292 291 290 291 291 291 291 291 292 292 291 292 291 292 292 291 291 291 291 291 292 292 292 293 294 293 293 294 293 293 293 295 296 295 295 295 295 296
290 290 290 291 290 290 289 289 289 291 291 288 280 284 284 288 291 288 286 291 291 292 291 292 292 291 291 291 291 292 292 292 291 291 291 292 292 292 292 292 293 294 294 294 294 295 295 295 295 295 295 295 295 295
292 292 292 291 291 290 289 287 288 286 286 285 285 285 282 288 284 281 283 291 292 292 292 292 292 291 291 292 292 292 292 291 291 291 292 292 292 292 292 292 293 293 294 294 294 294 294 294 294 294 294 294 294 294
291 291 290 289 285 288 286 286 283 284 283 280 285 290 288 286 289 291 288 291 291 292 292 292 292 291 291 291 291 291 291 291 291 291 291 291 291 291 292 292 293 292 293 293 294 293 293 293 293 293 294 294 294 294
290 290 291 291 291 290 289 288 289 287 286 287 283 280 285 288 290 287 292 292 292 292 292 292 292 292 292 291 291 291 291 291 291 291 290 291 291 291 291 292 292 292 292 292 292 292 292 292 293 294 294 295 296 295
291 292 290 291 291 291 290 288 288 288 286 289 287 287 288 289 290 292 292 292 292 292 292 292 291 291 291 291 290 290 290 290 291 290 290 290 290 290 290 291 291 292 292 292 293 292 292 293 293 294 294 295 295 294
290 291 290 286 287 287 288 286 287 291 291 291 290 291 290 292 292 292 292 292 292 292 291 291 291 291 291 291 290 290 290 290 290 290 290 290 290 290 291 292 292 292 292 292 292 292 292 292 293 294 294 293 293 294
289 290 288 283 283 283 290 291 291 291 291 291 291 291 291 291 292 292 291 291 291 291 291 291 291 291 290 290 290 290 290 290 290 289 290 290 290 291 291 292 292 292 292 292 292 292 293 293 293 293 293 293 293 292
290 289 289 288 287 290 290 290 290 290 290 290 290 290 290 290 291 290 290 291 290 290 290 290 290 290 289 289 289 289 289 290 289 290 290 290 291 291 291 291 291 292 292 292 292 293 293 293 293 293 293 292 292 293
288 288 284 280 289 290 290 290 289 289 289 289 288 289 289 288 288 289 290 289 289 289 290 290 289 289 290 289 289 289 289 290 289 290 290 290 290 290 291 291 292 292 292 292 292 292 293 293 293 293 292 291 292 292
287 286 287 287 287 287 288 288 288 283 286 288 289 289 289 288 288 289 289 289 289 289 289 290 290 290 290 290 289 290 290 290 290 290 290 291 291 291 291 292 292 292 293 293 293 292 292 292 293 292 291 291 292 291
Wind_Speed
17 15 14 12 11 11 10 10 10 12 15 15 16 17 17 16 14 13 12 13 12 7 10 8 7 6 4 4 3 5 3 2 2 3 3 3 3 3 2 3 5 7 6 4 4 4 9 9 7 6 4 6 10 20
18 16 15 14 14 13 12 12 13 16 16 17 17 18 18 18 17 15 12 14 15 10 9 13 13 14 15 8 4 6 3 3 7 3 1 2 3 2 4 3 2 3 6 5 10 8 6 8 16 15 22 27 36 39
22 21 19 18 18 18 17 16 16 18 16 15 17 16 17 18 19 17 15 16 18 10 15 8 3 8 13 19 15 5 4 5 5 4 5 2 5 4 3 5 2 4 7 4 0 7 18 24 31 32 29 29 32 32
26 24 22 21 18 19 21 18 17 17 17 17 16 16 15 17 18 17 13 13 15 8 5 4 3 4 5 8 11 18 19 5 3 4 4 2 3 7 3 3 4 7 3 4 7 18 18 17 23 29 34 43 42 38
31 28 26 23 22 20 19 19 18 18 18 16 17 18 17 16 15 14 12 17 15 7 4 11 18 19 12 8 10 14 16 18 11 3 2 3 4 2 3 1 4 9 6 5 6 8 8 24 43 46 39 33 34 37
33 32 30 28 25 23 20 18 17 17 17 16 15 14 13 13 12 10 5 3 5 3 6 4 7 8 9 7 6 7 8 9 8 6 5 5 4 3 2 3 9 13 14 16 8 24 37 39 33 31 33 40 38 33
24 22 20 21 20 19 17 16 16 15 14 14 13 11 11 10 9 5 4 4 5 5 3 6 6 3 1 1 3 4 7 5 6 4 4 3 3 5 2 4 5 7 18 27 27 25 24 27 31 32 29 27 26 24
18 16 14 12 10 11 13 13 13 13 12 11 11 9 9 10 11 10 14 15 13 6 4 3 5 3 0 1 1 4 4 5 6 3 3 4 3 4 4 14 20 18 22 17 20 21 21 21 25 28 23 20 24 21
11 10 9 9 10 10 11 10 10 9 9 10 9 8 8 9 4 4 6 7 8 9 3 5 2 3 3 1 1 1 2 2 3 4 4 4 2 5 7 11 14 16 15 19 22 24 28 28 29 28 24 22 23 24
10 12 12 12 11 9 8 7 7 7 6 7 5 3 2 2 3 4 3 3 6 7 7 5 3 3 2 3 2 3 3 2 2 3 4 3 4 25 24 21 12 9 13 17 23 33 34 34 34 34 33 28 24 24
11 11 12 12 12 11 10 8 7 7 6 4 3 1 2 1 3 2 2 3 4 4 6 5 12 2 5 2 1 2 1 2 2 3 3 2 4 6 10 10 7 11 13 18 25 31 33 33 34 35 36 33 32 33
12 11 11 11 12 11 11 10 8 5 3 1 1 2 3 2 3 2 3 3 4 4 5 5 7 8 3 5 3 2 2 1 5 7 1 3 5 12 16 7 12 18 20 23 27 34 34 31 35 35 33 33 33 33
12 13 13 12 11 11 11 9 8 8 6 2 3 3 2 3 3 5 6 4 3 4 7 6 3 6 4 5 2 2 3 4 4 2 4 6 4 4 11 9 18 30 28 28 34 37 39 41 38 36 38 32 31 35
14 13 13 12 12 11 10 10 11 11 6 5 5 4 5 4 5 5 4 3 3 3 10 10 4 2 3 2 3 3 3 2 3 3 7 2 4 13 16 15 30 37 36 32 33 41 42 47 47 42 37 36 39 42
16 16 16 14 13 12 12 11 13 14 8 5 5 5 6 9 6 3 4 4 4 3 10 4 2 3 1 1 4 2 3 6 4 5 3 2 7 29 34 34 38 34 37 43 48 54 55 54 51 49 44 41 42 45
18 18 20 17 16 15 14 13 15 17 6 6 9 5 7 3 4 10 10 7 3 10 8 3 3 2 4 4 5 7 4 7 5 3 6 22 36 40 43 41 43 45 52 59 56 49 50 51 48 49 49 49 46 39
17 20 18 17 17 16 18 20 16 10 9 8 9 17 13 8 9 9 8 9 16 13 3 4 5 11 0 3 4 4 5 4 19 26 35 43 42 44 48 55 54 51 53 52 49 50 55 50 48 50 52 49 42 40
23 21 18 16 13 14 19 23 12 11 12 17 9 19 24 22 24 26 25 21 16 15 9 6 4 3 4 5 9 10 26 38 40 39 42 46 45 49 48 49 51 51 48 49 50 54 51 51 46 47 47 47 46 43
22 21 19 16 14 17 8 7 12 6 19 9 24 20 19 27 31 33 29 24 24 24 15 6 4 4 7 14 22 33 34 32 36 41 39 44 45 45 47 46 47 48 49 48 47 49 51 50 49 48 47 44 42 41
21 20 19 18 17 12 6 8 12 8 7 9 19 27 24 23 32 32 34 31 27 23 13 6 9 27 27 36 40 39 42 42 38 37 42 44 40 41 42 43 46 48 47 45 45 45 42 44 46 40 42 41 38 38
19 21 20 18 18 20 9 7 6 5 4 8 17 24 14 18 27 31 33 27 22 14 15 27 32 39 49 49 46 43 41 43 44 44 39 38 43 42 45 46 45 42 42 43 41 40 43 44 45 45 41 41 39 38
22 20 19 19 13 8 10 11 6 4 7 12 17 14 7 9 20 24 22 17 17 34 32 34 39 43 43 48 54 51 50 52 49 44 48 45 40 40 43 46 42 41 44 45 42 42 48 49 44 42 42 43 42 41
20 14 13 11 10 10 7 18 12 11 4 8 10 4 5 7 13 16 11 21 30 37 40 42 49 51 50 51 45 48 52 43 40 46 44 41 40 41 44 48 44 42 48 50 42 41 45 43 41 40 41 40 39 38
21 14 10 10 19 7 9 11 10 8 10 6 4 6 6 11 15 12 6 23 40 42 35 41 46 46 44 42 46 49 48 44 39 39 37 36 40 43 42 45 46 45 45 46 38 38 38 38 36 36 37 37 37 36
10 11 11 7 13 10 7 6 6 4 8 7 7 6 5 11 4 5 4 22 38 35 42 46 45 39 38 44 46 45 44 39 35 36 35 35 37 42 45 47 46 44 42 41 41 41 41 40 39 40 40 39 37 35
8 14 11 11 6 8 7 6 8 8 4 4 9 9 10 4 6 7 8 43 39 40 47 43 38 37 38 43 41 38 35 31 31 35 40 40 38 37 41 44 44 54 37 37 37 40 42 40 39 37 35 35 31 27
5 7 10 12 9 4 4 4 6 3 6 7 4 4 4 6 9 6 35 34 37 45 46 43 41 40 41 38 35 36 36 37 38 41 43 41 40 42 43 43 45 49 45 40 38 37 35 32 30 31 33 30 26 22
12 11 8 14 12 20 8 6 6 7 5 11 3 7 7 8 8 30 32 32 31 31 31 31 33 30 30 36 38 40 41 42 46 45 45 45 46 45 41 38 37 33 29 25 25 25 26 26 29 31 30 27 24 20
11 18 13 6 7 7 11 7 7 17 31 23 10 14 14 36 41 38 40 41 42 40 37 39 42 43 43 47 50 50 48 49 46 44 43 45 48 45 33 29 27 26 25 25 24 26 27 27 28 28 26 22 20 17
13 17 12 7 7 8 22 25 33 43 33 34 34 34 36 41 48 45 43 44 44 46 48 50 52 53 52 46 47 51 52 48 44 41 39 45 47 37 30 28 29 27 26 25 25 25 23 24 24 22 20 18 15 12
9 17 10 15 12 35 45 40 37 38 39 39 40 35 39 44 46 47 47 51 49 49 52 54 56 54 48 49 48 45 48 42 39 38 36 33 32 33 32 30 30 27 26 25 23 24 23 22 21 18 17 15 11 12
12 17 9 5 15 34 29 28 18 20 29 30 35 34 34 30 32 51 50 40 42 46 51 50 47 46 45 44 43 41 39 38 37 36 36 35 36 33 28 28 28 28 27 26 25 25 25 21 19 18 16 12 12 12
10 12 13 9 7 7 14 8 7 7 13 17 24 29 31 25 15 39 41 34 35 40 42 43 44 42 36 37 36 33 31 29 28 28 26 25 24 24 25 28 29 26 25 26 24 23 23 20 17 15 13 12 11 9
Wind_Direction
231 235 236 241 253 261 274 283 302 316 324 331 338 342 343 339 338 338 343 349 356 308 283 247 238 231 215 198 174 162 109 209 98 144 165 217 202 243 287 194 182 178 157 196 158 223 273 172 98 174 239 308 311 307
229 238 245 249 255 266 277 284 291 301 310 314 323 329 329 334 331 328 331 331 333 302 281 277 259 246 241 243 245 208 285 169 180 104 223 141 226 215 180 253 192 248 196 182 190 219 234 207 242 270 292 298 301 302
235 242 248 255 253 258 263 274 282 284 293 301 307 318 321 323 326 326 326 329 338 324 302 291 279 241 248 240 237 260 241 227 208 214 170 181 234 142 209 238 229 254 211 224 263 256 255 282 290 291 305 310 315 314
238 242 243 248 253 253 259 265 272 275 282 291 298 306 309 312 313 315 319 323 325 310 292 295 305 234 237 248 243 236 242 238 221 218 226 191 221 196 231 260 206 216 177 213 262 287 299 289 324 317 312 310 310 312
237 238 244 246 245 248 252 256 264 272 277 281 288 295 302 304 305 305 308 301 296 248 284 294 292 285 280 261 252 242 239 243 239 243 190 233 241 221 239 262 243 200 216 192 227 281 293 308 309 308 313 311 311 313
226 232 235 236 239 243 250 261 267 271 275 279 281 284 289 293 298 308 311 5 147 56 332 320 301 271 286 281 248 238 229 225 205 195 218 232 238 225 233 246 261 235 249 260 281 303 314 309 311 310 308 307 310 306
215 218 221 227 233 239 245 251 258 265 270 274 276 276 278 279 283 262 261 312 236 300 313 302 286 282 264 258 128 146 177 190 198 211 239 256 246 224 251 241 251 285 303 304 307 317 320 331 316 328 322 322 326 314
201 205 211 220 235 247 254 256 258 259 263 265 266 269 271 272 271 263 262 266 278 280 233 265 271 296 281 303 104 141 150 188 206 217 225 225 222 231 258 245 271 296 318 322 336 331 321 328 352 355 348 342 342 345
188 195 205 214 229 240 246 246 249 251 253 260 266 275 283 265 235 249 274 262 241 222 227 194 225 268 153 139 71 151 189 217 198 213 221 180 205 234 240 265 296 342 336 320 345 353 353 355 358 3 1 357 353 347
211 222 222 220 221 221 225 232 239 248 250 259 269 238 181 185 242 284 260 219 207 205 239 228 219 268 176 168 198 178 191 243 251 223 175 216 249 253 257 259 289 332 16 16 7 4 356 349 348 348 347 342 335 333
219 223 227 227 226 226 227 236 244 254 262 246 208 137 224 210 258 245 240 212 191 240 229 236 216 234 222 196 254 266 235 195 247 222 188 223 261 240 145 123 67 25 9 11 7 359 352 345 339 330 329 330 328 330
225 227 229 233 233 235 236 230 232 228 195 155 112 304 253 189 195 242 223 198 210 241 208 203 209 196 213 199 154 199 248 265 263 148 174 244 247 204 174 140 8 1 360 354 351 353 350 340 334 329 321 319 322 319
226 226 228 233 237 238 237 230 219 211 204 189 228 227 217 194 198 214 207 209 227 217 188 178 164 169 178 202 178 187 223 229 131 232 237 232 27 345 223 245 323 339 337 334 336 338 341 338 330 329 323 320 321 322
228 231 232 232 233 234 232 220 210 206 182 196 187 232 212 234 221 201 176 192 236 261 176 163 139 202 181 157 174 226 236 164 242 227 236 255 107 33 12 324 326 331 333 327 327 332 328 330 326 322 321 319 317 314
233 231 231 230 230 227 223 214 209 203 195 206 198 229 224 227 210 192 207 238 264 153 155 139 110 204 208 219 201 241 233 236 212 231 245 342 351 333 332 329 326 324 325 323 323 320 317 317 317 315 317 316 311 310
234 237 233 230 228 225 219 210 207 203 208 228 227 226 239 272 239 231 231 244 204 189 168 170 128 250 239 212 198 214 236 221 242 216 290 316 318 322 322 321 318 314 313 313 312 309 308 310 311 311 312 310 311 311
232 237 238 235 232 227 220 207 207 204 216 221 232 216 211 210 222 212 208 217 213 188 197 156 195 220 152 228 216 201 224 233 285 302 309 309 308 308 309 307 305 305 305 306 307 306 307 310 309 307 306 309 312 311
230 237 238 240 229 219 221 212 206 205 220 227 230 222 211 231 237 239 238 231 205 199 197 209 228 178 225 221 257 264 280 284 285 286 287 291 295 298 297 297 299 301 303 303 302 303 305 306 305 301 301 306 307 307
235 236 235 233 220 215 219 231 209 222 220 221 233 238 224 231 241 251 257 241 233 235 238 235 224 209 231 245 257 264 268 273 275 282 286 288 288 290 292 294 297 298 298 299 298 297 298 299 300 300 303 304 302 306
233 236 234 231 222 211 232 228 221 236 210 220 236 246 236 237 252 254 254 250 234 226 229 212 228 240 251 257 257 262 268 272 277 280 279 284 289 290 291 293 293 293 293 294 293 293 293 294 294 294 297 300 302 307
232 231 229 227 224 220 228 229 236 237 212 225 254 243 241 248 246 245 247 250 212 221 235 237 242 250 256 260 264 265 269 272 269 269 277 284 288 291 292 291 290 290 288 287 286 288 289 286 292 297 300 303 303 305
231 233 229 228 227 233 228 227 231 232 239 256 261 254 223 221 238 243 243 221 234 241 243 249 248 249 254 258 267 272 279 281 277 277 283 284 285 288 293 297 294 291 288 286 285 284 287 294 296 301 302 304 307 308
226 218 217 215 220 218 236 234 226 225 198 214 220 213 224 228 243 254 216 242 249 256 254 252 262 267 261 266 268 276 279 275 276 281 284 291 295 291 284 299 305 293 287 295 290 283 285 300 302 301 305 306 307 308
223 212 218 214 198 210 192 207 219 216 217 216 169 222 241 236 255 207 241 246 254 258 256 259 262 261 262 263 269 273 281 286 286 288 292 288 289 293 296 298 298 304 300 303 305 303 302 303 307 307 310 309 308 306
229 204 203 202 184 189 190 202 201 186 220 211 194 240 250 199 194 219 225 251 255 251 253 259 258 253 252 262 269 274 284 282 282 285 295 291 289 294 294 299 298 298 304 299 298 305 307 311 311 311 311 309 310 309
214 201 197 200 203 176 198 196 201 204 162 186 224 230 213 174 225 242 239 251 254 252 253 252 256 257 259 270 275 279 283 290 289 285 290 292 292 289 292 289 290 300 298 295 296 299 302 305 306 306 307 311 309 303
206 221 209 221 220 214 223 237 218 181 189 214 229 151 178 220 220 243 253 252 256 264 268 267 265 261 270 277 278 281 283 283 283 288 293 290 288 288 289 281 280 292 300 302 302 302 302 303 304 307 308 307 304 305
216 201 193 205 206 221 226 196 188 208 214 222 190 193 203 208 229 249 256 266 275 280 273 270 269 268 270 278 282 282 281 282 284 289 291 288 289 291 292 294 295 298 299 299 301 301 303 301 304 307 305 301 301 296
212 223 202 198 203 224 214 204 216 232 241 228 225 238 239 244 254 261 263 270 277 273 266 266 269 274 279 281 281 280 280 280 278 280 281 284 290 291 299 302 304 305 304 301 298 298 298 297 299 298 300 300 296 292
223 206 192 197 190 223 237 232 245 255 251 245 246 254 258 259 261 264 265 266 265 265 269 274 278 278 275 274 276 280 282 278 277 275 270 278 286 293 298 299 303 309 305 300 295 294 295 294 292 293 297 298 292 286
230 199 216 225 237 248 251 257 259 261 259 261 259 246 251 261 270 270 268 270 270 270 272 272 273 273 270 271 268 267 275 281 275 277 278 282 285 291 295 298 302 305 300 295 289 288 291 295 296 293 291 288 280 282
206 207 196 238 251 257 258 258 256 255 261 257 260 260 263 262 261 268 273 269 265 263 269 269 266 273 279 277 278 276 278 282 283 280 283 283 284 287 290 295 299 300 298 291 283 280 282 289 289 287 284 273 274 281
226 229 229 250 266 251 255 240 255 265 249 248 255 255 253 246 258 271 277 273 266 268 272 278 282 284 287 283 281 284 286 288 290 289 283 278 277 282 290 294 297 299 296 290 285 278 277 279 278 276 268 258 270 269